Flag for U.S.A. Weather past 2 weeks in Aurora, Colorado, U.S.A.

Now
44 °F

Passing clouds.


Feels Like: 40 °F
Forecast: 35 / 65 °F
Wind: 6 mph from Southwest

Location: Buckley Air Force Base

Current Time: Apr 21, 2015 at 8:29:04 AM

Latest Report: Apr 21, 2015 at 7:58 AM


Visibility: 10 mi

Pressure: 29.88 "Hg

Humidity: 63%

Dew point: 32 °F

Location of AuroraLocation

Historic Weather in Aurora — Graph

°F

Aurora temperature yesterday

Maximum temperature yesterday: 54 °F (at 3:58 PM)
Minimum temperature yesterday: 31 °F (at 6:58 AM)
Average temperature yesterday: 41 °F

Past Weeks' High & Low Weather Summary

 TemperatureHumidityPressure
High74 °F (Apr 14, 3:58 PM)100% (Apr 7, 3:58 AM)30.17 "Hg (Apr 7, 3:58 AM)
Low31 °F (Apr 20, 6:58 AM)8% (Apr 6, 12:58 PM)29.39 "Hg (Apr 8, 1:58 PM)
Average47 °F58%29.87 "Hg
* Reported Apr 6 6:58 AM — Apr 21 6:58 AM, Aurora, Weather by CustomWeather, © 2015

Note: Actual official high and low records may vary slightly from our data, if they occured in-between our weather recording intervals... More about our weather records

Advertising

Aurora weather history for previous 24 hours

 ConditionsComfort  
Time TempWeatherWind HumidityBarometerVisibility
6:58 AM
Tue, Apr 21
37 °FPassing clouds.6 mph76%29.88 "Hg10 mi
5:58 AM36 °FPassing clouds.6 mph77%29.86 "Hg10 mi
4:58 AM38 °FPassing clouds.7 mph76%29.86 "Hg10 mi
3:58 AM37 °FPassing clouds.6 mph79%29.87 "Hg10 mi
2:58 AM38 °FPassing clouds.10 mph82%29.87 "Hg10 mi
1:58 AM38 °FPassing clouds.9 mph82%29.88 "Hg10 mi
12:58 AM38 °FPassing clouds.6 mph80%29.90 "Hg10 mi
11:58 PM
Mon, Apr 20
37 °FPassing clouds.7 mph87%29.90 "Hg10 mi
10:58 PM38 °FPassing clouds.8 mph89%29.92 "Hg10 mi
9:58 PM40 °FPassing clouds.9 mph88%29.94 "Hg10 mi
8:58 PM42 °FPassing clouds.6 mph78%29.94 "Hg10 mi
7:59 PM46 °FPartly sunny.3 mph62%29.96 "Hg10 mi
7:58 PM46 °FPartly sunny.6 mph63%29.92 "Hg10 mi
5:58 PM52 °FBroken clouds.8 mph43%29.88 "Hg10 mi
3:58 PM54 °FScattered clouds.8 mph39%29.84 "Hg10 mi
2:58 PM53 °FScattered clouds.6 mph42%29.86 "Hg10 mi
1:58 PM51 °FBroken clouds.6 mph42%29.90 "Hg10 mi
12:58 PM49 °FScattered clouds.6 mph45%29.90 "Hg10 mi
11:58 AM48 °FScattered clouds.No wind44%29.93 "Hg10 mi
10:58 AM44 °FScattered clouds.3 mph52%29.95 "Hg10 mi
9:58 AM41 °FPassing clouds.6 mph58%29.98 "Hg10 mi
8:58 AM37 °FPassing clouds.5 mph69%30.01 "Hg10 mi
Weather by CustomWeather, © 2015

See weather overviewHow to use our weather pages